GEFSSE_prec_meanprecacc_096.txt.gz
Total_Precipitation_Accumulation
0.33 0.25 0.40 0.45 0.42 0.42 0.41 0.42 0.41 0.39 0.37 0.32 0.27 0.24 0.22 0.20 0.23 0.26 0.25 0.17 0.13 0.13 0.13 0.20 0.25 0.20 0.22 0.27 0.31 0.36 0.42 0.44 0.36 0.29 0.29 0.31 0.30 0.34 0.46 0.57 0.69 0.70 0.53
0.30 0.26 0.45 0.52 0.51 0.50 0.47 0.45 0.43 0.40 0.35 0.32 0.30 0.26 0.25 0.25 0.27 0.26 0.20 0.13 0.10 0.11 0.14 0.21 0.27 0.23 0.24 0.32 0.42 0.50 0.55 0.51 0.42 0.32 0.40 0.44 0.38 0.40 0.46 0.55 0.76 0.72 0.47
0.29 0.28 0.43 0.57 0.58 0.55 0.52 0.48 0.48 0.43 0.35 0.33 0.34 0.31 0.26 0.24 0.23 0.20 0.18 0.13 0.10 0.09 0.11 0.19 0.26 0.25 0.26 0.36 0.47 0.51 0.53 0.53 0.45 0.42 0.72 1.22 0.85 0.52 0.50 0.59 0.63 0.50 0.42
0.32 0.34 0.44 0.65 0.69 0.66 0.60 0.59 0.69 0.61 0.48 0.42 0.40 0.37 0.29 0.25 0.27 0.32 0.31 0.18 0.12 0.10 0.10 0.18 0.26 0.24 0.27 0.36 0.41 0.40 0.42 0.44 0.48 0.63 1.11 1.47 1.27 0.75 0.70 0.69 0.62 0.52 0.46
0.36 0.38 0.61 0.76 0.70 0.67 0.69 0.81 0.95 0.84 0.72 0.60 0.48 0.41 0.37 0.36 0.36 0.40 0.33 0.26 0.19 0.16 0.14 0.20 0.26 0.25 0.25 0.27 0.30 0.31 0.40 0.56 0.71 0.82 1.10 1.23 1.25 0.94 0.81 0.74 0.67 0.56 0.53
0.41 0.42 0.56 0.70 0.70 0.72 0.79 0.89 0.96 0.97 0.97 0.77 0.60 0.54 0.53 0.50 0.49 0.48 0.44 0.33 0.28 0.25 0.22 0.23 0.25 0.30 0.29 0.28 0.28 0.32 0.47 0.67 0.80 0.91 1.10 1.12 1.08 0.85 0.77 0.73 0.71 0.68 0.63
0.38 0.39 0.45 0.63 0.65 0.69 0.78 0.87 0.89 0.98 1.05 0.90 0.66 0.66 0.68 0.60 0.59 0.59 0.56 0.43 0.36 0.32 0.29 0.31 0.29 0.30 0.31 0.31 0.30 0.34 0.45 0.50 0.64 0.84 1.09 1.17 0.91 0.71 0.74 0.70 0.70 0.72 0.72
0.50 0.46 0.48 0.59 0.63 0.67 0.75 0.87 0.82 0.89 1.00 0.93 0.79 0.72 0.66 0.65 0.67 0.68 0.61 0.51 0.44 0.40 0.38 0.39 0.38 0.34 0.32 0.32 0.33 0.40 0.45 0.40 0.49 0.61 0.69 0.99 0.98 0.85 0.71 0.70 0.74 0.67 0.65
0.89 0.77 0.60 0.52 0.53 0.60 0.72 0.85 0.89 0.90 0.93 0.90 0.91 0.81 0.75 0.72 0.69 0.65 0.61 0.56 0.52 0.50 0.47 0.44 0.40 0.35 0.32 0.31 0.31 0.37 0.44 0.40 0.50 0.58 0.55 0.81 0.93 0.86 0.69 0.64 0.70 0.73 0.68
0.96 0.91 0.79 0.70 0.67 0.67 0.65 0.81 1.02 1.10 1.07 0.98 0.94 0.90 0.88 0.80 0.72 0.68 0.60 0.57 0.57 0.56 0.56 0.53 0.48 0.41 0.35 0.31 0.30 0.36 0.42 0.40 0.45 0.46 0.52 0.63 0.84 0.85 0.75 0.57 0.52 0.52 0.51
0.77 0.79 0.81 0.84 0.87 0.93 0.93 0.92 1.14 1.22 1.15 0.96 0.86 0.90 0.90 0.76 0.77 0.75 0.63 0.73 0.68 0.69 0.69 0.65 0.58 0.51 0.41 0.32 0.35 0.40 0.34 0.37 0.49 0.44 0.47 0.51 0.72 0.77 0.70 0.57 0.42 0.38 0.35
0.63 0.64 0.65 0.69 0.77 0.89 0.97 1.30 1.50 1.30 1.19 0.92 0.91 0.81 0.86 0.93 1.01 0.82 0.74 0.88 0.88 0.89 0.83 0.77 0.74 0.61 0.45 0.31 0.31 0.33 0.27 0.33 0.41 0.34 0.34 0.46 0.65 0.68 0.58 0.49 0.35 0.30 0.29
0.49 0.48 0.48 0.47 0.49 0.58 0.78 1.12 1.41 1.52 1.48 1.39 1.15 0.93 0.94 0.82 0.71 0.65 0.65 0.74 0.81 0.86 0.78 0.76 0.70 0.55 0.45 0.37 0.31 0.26 0.25 0.28 0.39 0.40 0.37 0.45 0.59 0.65 0.56 0.46 0.34 0.28 0.25
0.47 0.48 0.45 0.44 0.41 0.43 0.52 0.69 0.89 1.03 1.12 1.14 0.99 0.87 0.95 0.84 0.73 0.74 0.72 0.71 0.70 0.75 0.82 0.82 0.71 0.59 0.49 0.39 0.35 0.32 0.30 0.31 0.43 0.54 0.52 0.40 0.51 0.61 0.60 0.49 0.38 0.31 0.28
0.52 0.59 0.56 0.47 0.44 0.43 0.47 0.54 0.62 0.77 0.86 0.89 0.91 0.86 0.89 0.89 0.86 0.83 0.75 0.74 0.67 0.72 0.79 0.82 0.73 0.63 0.58 0.50 0.45 0.46 0.45 0.44 0.48 0.49 0.52 0.47 0.56 0.68 0.73 0.65 0.52 0.38 0.29
0.53 0.60 0.65 0.57 0.52 0.48 0.46 0.49 0.54 0.64 0.72 0.76 0.75 0.75 0.85 0.93 0.92 0.88 0.82 0.83 0.80 0.80 0.90 0.86 0.73 0.68 0.62 0.53 0.44 0.43 0.43 0.44 0.48 0.45 0.47 0.53 0.57 0.59 0.73 0.81 0.75 0.52 0.40
0.53 0.56 0.59 0.60 0.60 0.59 0.57 0.56 0.56 0.63 0.73 0.74 0.72 0.67 0.69 0.78 0.83 0.85 0.84 0.84 0.88 0.96 1.00 1.01 0.81 0.74 0.60 0.51 0.46 0.40 0.36 0.37 0.35 0.39 0.34 0.33 0.40 0.53 0.67 0.80 0.81 0.66 0.54
0.46 0.47 0.52 0.54 0.59 0.65 0.68 0.69 0.71 0.71 0.78 0.75 0.74 0.68 0.63 0.68 0.75 0.88 0.88 0.85 0.88 0.99 1.06 1.09 0.96 0.84 0.69 0.58 0.58 0.51 0.43 0.39 0.36 0.38 0.38 0.31 0.34 0.36 0.51 0.59 0.65 0.66 0.61
0.41 0.41 0.44 0.48 0.51 0.62 0.70 0.73 0.82 0.84 0.86 0.83 0.82 0.73 0.71 0.76 0.82 0.97 1.06 1.06 1.07 1.07 1.04 0.99 1.00 0.93 0.79 0.70 0.66 0.63 0.56 0.45 0.43 0.39 0.40 0.37 0.29 0.29 0.35 0.31 0.37 0.41 0.47
0.32 0.34 0.38 0.43 0.45 0.53 0.68 0.80 0.96 1.07 1.04 1.06 1.00 0.88 0.91 1.04 1.17 1.29 1.28 1.35 1.40 1.25 1.18 1.10 1.09 1.03 0.89 0.84 0.77 0.65 0.58 0.51 0.50 0.48 0.47 0.42 0.37 0.31 0.31 0.25 0.27 0.23 0.27
0.22 0.25 0.31 0.34 0.42 0.50 0.58 0.73 0.95 1.22 1.33 1.42 1.38 1.21 1.16 1.28 1.51 1.70 1.65 1.67 1.66 1.50 1.44 1.51 1.65 1.58 1.29 1.03 0.96 0.79 0.62 0.49 0.50 0.49 0.46 0.44 0.41 0.43 0.42 0.34 0.26 0.23 0.18
0.15 0.17 0.22 0.30 0.39 0.48 0.57 0.75 0.91 1.06 1.07 1.24 1.40 1.38 1.29 1.28 1.42 1.55 1.78 1.83 1.73 1.71 1.81 1.85 2.11 2.20 1.79 1.39 1.29 1.32 1.04 0.82 0.56 0.42 0.43 0.42 0.42 0.55 0.49 0.35 0.28 0.21 0.18
0.10 0.12 0.15 0.22 0.32 0.45 0.61 0.85 1.07 1.26 1.34 1.41 1.34 1.42 1.43 1.35 1.38 1.46 1.61 1.75 1.74 1.78 1.83 1.93 2.23 2.62 2.35 1.89 1.63 1.73 1.39 1.17 0.96 0.54 0.38 0.39 0.43 0.54 0.58 0.50 0.41 0.34 0.25
0.08 0.09 0.12 0.20 0.35 0.56 0.78 1.04 1.30 1.50 1.54 1.43 1.47 1.50 1.38 1.30 1.27 1.33 1.46 1.59 1.68 1.69 1.79 1.85 1.95 2.38 2.65 2.36 2.08 1.72 1.39 1.24 1.23 0.97 0.61 0.48 0.53 0.54 0.58 0.56 0.50 0.48 0.42
0.14 0.16 0.23 0.43 0.68 0.93 1.14 1.41 1.70 1.70 1.59 1.50 1.50 1.46 1.40 1.40 1.38 1.37 1.50 1.56 1.55 1.60 1.69 1.96 2.18 2.42 2.56 2.49 2.38 2.20 1.98 1.65 1.21 1.21 1.12 0.83 0.69 0.62 0.61 0.61 0.59 0.55 0.52
0.44 0.58 0.79 1.05 1.24 1.33 1.46 1.61 1.73 1.71 1.72 1.66 1.48 1.39 1.38 1.42 1.48 1.53 1.58 1.55 1.51 1.54 1.63 1.81 2.04 2.26 2.52 2.65 2.53 2.32 2.18 1.97 1.66 1.49 1.25 1.12 1.02 0.82 0.80 0.78 0.69 0.64 0.64

GEFSSE_prec_meanprecacc_102.txt.gz
Total_Precipitation_Accumulation
0.44 0.29 0.42 0.47 0.44 0.45 0.43 0.44 0.44 0.42 0.40 0.37 0.33 0.32 0.30 0.28 0.30 0.33 0.32 0.24 0.18 0.17 0.16 0.24 0.29 0.23 0.24 0.29 0.32 0.37 0.43 0.44 0.36 0.30 0.30 0.32 0.31 0.35 0.48 0.59 0.75 0.81 0.57
0.37 0.29 0.47 0.54 0.53 0.53 0.50 0.48 0.48 0.44 0.38 0.38 0.37 0.34 0.32 0.32 0.34 0.32 0.28 0.22 0.18 0.16 0.18 0.25 0.31 0.27 0.27 0.34 0.44 0.51 0.56 0.51 0.43 0.33 0.41 0.46 0.41 0.42 0.49 0.57 0.84 0.83 0.51
0.35 0.32 0.46 0.60 0.62 0.59 0.56 0.53 0.55 0.50 0.41 0.40 0.41 0.39 0.34 0.30 0.29 0.26 0.26 0.22 0.19 0.18 0.19 0.25 0.31 0.29 0.29 0.39 0.50 0.53 0.54 0.53 0.46 0.44 0.78 1.33 0.94 0.56 0.52 0.61 0.67 0.54 0.46
0.35 0.38 0.49 0.68 0.72 0.69 0.65 0.63 0.75 0.69 0.57 0.51 0.48 0.45 0.37 0.32 0.34 0.39 0.39 0.30 0.24 0.24 0.22 0.25 0.32 0.29 0.31 0.39 0.44 0.42 0.45 0.46 0.49 0.67 1.23 1.63 1.40 0.82 0.72 0.71 0.64 0.54 0.49
0.38 0.41 0.65 0.80 0.73 0.71 0.72 0.85 1.01 0.92 0.82 0.70 0.59 0.51 0.46 0.43 0.44 0.50 0.43 0.39 0.35 0.31 0.29 0.33 0.36 0.32 0.32 0.33 0.33 0.34 0.42 0.58 0.73 0.86 1.21 1.37 1.41 1.03 0.84 0.75 0.70 0.58 0.56
0.41 0.43 0.59 0.73 0.73 0.76 0.81 0.92 1.00 1.03 1.05 0.85 0.69 0.63 0.61 0.59 0.57 0.59 0.57 0.49 0.46 0.41 0.39 0.40 0.37 0.37 0.37 0.36 0.33 0.36 0.49 0.70 0.84 1.00 1.22 1.26 1.23 0.94 0.80 0.75 0.74 0.71 0.68
0.39 0.40 0.46 0.63 0.65 0.70 0.80 0.89 0.92 1.00 1.09 0.94 0.72 0.72 0.74 0.67 0.67 0.69 0.70 0.59 0.53 0.50 0.48 0.48 0.43 0.39 0.38 0.38 0.37 0.40 0.48 0.53 0.69 0.93 1.20 1.34 1.06 0.77 0.76 0.72 0.73 0.75 0.76
0.52 0.47 0.48 0.59 0.64 0.68 0.77 0.89 0.84 0.90 1.02 0.96 0.86 0.80 0.74 0.72 0.75 0.76 0.72 0.66 0.59 0.57 0.55 0.55 0.52 0.44 0.40 0.39 0.40 0.45 0.48 0.43 0.53 0.68 0.78 1.13 1.11 0.90 0.72 0.72 0.77 0.70 0.68
0.90 0.77 0.60 0.52 0.54 0.61 0.73 0.85 0.89 0.90 0.94 0.92 0.98 0.93 0.89 0.85 0.79 0.74 0.71 0.68 0.64 0.63 0.61 0.59 0.53 0.48 0.44 0.39 0.38 0.42 0.47 0.42 0.53 0.61 0.59 0.93 1.04 0.91 0.71 0.66 0.72 0.75 0.71
0.96 0.91 0.79 0.70 0.67 0.67 0.65 0.81 1.02 1.10 1.07 0.98 0.97 0.96 0.95 0.89 0.79 0.74 0.66 0.65 0.66 0.66 0.69 0.68 0.59 0.53 0.46 0.41 0.39 0.44 0.47 0.42 0.46 0.48 0.56 0.72 0.94 0.91 0.79 0.60 0.55 0.55 0.54
0.77 0.79 0.81 0.84 0.87 0.93 0.93 0.92 1.14 1.22 1.15 0.96 0.87 0.90 0.91 0.77 0.80 0.80 0.68 0.77 0.74 0.76 0.78 0.77 0.70 0.62 0.51 0.41 0.43 0.48 0.40 0.39 0.51 0.48 0.52 0.60 0.78 0.82 0.75 0.62 0.47 0.42 0.38
0.63 0.64 0.65 0.69 0.77 0.89 0.97 1.30 1.50 1.30 1.19 0.92 0.91 0.81 0.87 0.94 1.02 0.84 0.77 0.91 0.92 0.94 0.89 0.86 0.85 0.73 0.56 0.41 0.43 0.43 0.32 0.37 0.47 0.38 0.40 0.52 0.70 0.72 0.63 0.55 0.42 0.36 0.34
0.49 0.48 0.48 0.47 0.49 0.58 0.78 1.12 1.41 1.52 1.48 1.40 1.16 0.93 0.94 0.82 0.72 0.67 0.69 0.78 0.85 0.91 0.85 0.85 0.81 0.66 0.56 0.50 0.44 0.36 0.31 0.33 0.45 0.45 0.45 0.54 0.64 0.70 0.63 0.53 0.41 0.35 0.31
0.47 0.48 0.45 0.44 0.41 0.43 0.52 0.69 0.89 1.03 1.12 1.14 0.99 0.88 0.95 0.84 0.74 0.75 0.75 0.75 0.74 0.81 0.89 0.90 0.82 0.69 0.57 0.49 0.45 0.40 0.37 0.36 0.47 0.59 0.60 0.46 0.55 0.65 0.65 0.54 0.44 0.37 0.34
0.52 0.59 0.56 0.47 0.44 0.43 0.47 0.54 0.62 0.77 0.86 0.89 0.91 0.86 0.90 0.90 0.87 0.84 0.77 0.76 0.70 0.76 0.85 0.89 0.81 0.72 0.66 0.58 0.54 0.54 0.51 0.50 0.52 0.53 0.58 0.52 0.58 0.71 0.77 0.69 0.56 0.43 0.34
0.53 0.60 0.65 0.57 0.52 0.48 0.46 0.49 0.54 0.64 0.72 0.76 0.75 0.75 0.85 0.94 0.93 0.89 0.84 0.85 0.82 0.82 0.93 0.91 0.79 0.78 0.75 0.65 0.53 0.51 0.51 0.51 0.53 0.49 0.53 0.61 0.61 0.61 0.76 0.85 0.79 0.56 0.45
0.53 0.56 0.59 0.60 0.60 0.59 0.57 0.56 0.56 0.63 0.73 0.75 0.72 0.67 0.69 0.78 0.83 0.86 0.86 0.86 0.90 0.98 1.02 1.04 0.85 0.80 0.72 0.62 0.56 0.49 0.44 0.44 0.41 0.42 0.39 0.41 0.48 0.57 0.69 0.84 0.87 0.71 0.59
0.46 0.47 0.52 0.54 0.59 0.65 0.68 0.69 0.71 0.71 0.78 0.75 0.74 0.68 0.63 0.68 0.76 0.89 0.90 0.86 0.89 1.01 1.08 1.11 0.99 0.89 0.77 0.69 0.69 0.60 0.50 0.46 0.40 0.41 0.42 0.35 0.42 0.42 0.56 0.63 0.70 0.71 0.68
0.41 0.41 0.44 0.48 0.51 0.62 0.70 0.73 0.82 0.84 0.86 0.83 0.82 0.74 0.71 0.76 0.83 1.00 1.10 1.10 1.09 1.09 1.07 1.02 1.04 0.98 0.87 0.81 0.77 0.73 0.63 0.52 0.49 0.44 0.44 0.41 0.34 0.36 0.43 0.36 0.40 0.44 0.52
0.32 0.34 0.38 0.43 0.45 0.53 0.68 0.80 0.96 1.07 1.04 1.06 1.00 0.89 0.91 1.05 1.18 1.32 1.31 1.38 1.43 1.29 1.22 1.15 1.15 1.08 0.96 0.92 0.84 0.72 0.67 0.57 0.57 0.54 0.53 0.48 0.43 0.37 0.40 0.34 0.30 0.27 0.31
0.22 0.25 0.31 0.34 0.42 0.50 0.58 0.73 0.95 1.22 1.33 1.43 1.39 1.21 1.16 1.28 1.52 1.72 1.67 1.71 1.71 1.55 1.48 1.55 1.71 1.64 1.34 1.10 1.04 0.86 0.70 0.56 0.61 0.57 0.53 0.51 0.47 0.50 0.52 0.45 0.33 0.29 0.22
0.15 0.17 0.22 0.30 0.39 0.48 0.57 0.75 0.91 1.06 1.07 1.24 1.40 1.38 1.30 1.29 1.43 1.56 1.81 1.88 1.78 1.77 1.88 1.92 2.18 2.26 1.84 1.45 1.38 1.41 1.13 0.92 0.66 0.48 0.48 0.48 0.50 0.64 0.60 0.45 0.36 0.29 0.23
0.10 0.12 0.15 0.22 0.32 0.45 0.61 0.85 1.07 1.26 1.34 1.41 1.34 1.43 1.44 1.37 1.40 1.49 1.65 1.79 1.78 1.84 1.89 1.99 2.30 2.68 2.41 1.95 1.70 1.81 1.48 1.28 1.08 0.64 0.44 0.44 0.51 0.64 0.69 0.61 0.50 0.42 0.32
0.08 0.09 0.12 0.20 0.35 0.56 0.78 1.04 1.30 1.50 1.54 1.43 1.48 1.51 1.39 1.33 1.29 1.36 1.50 1.62 1.72 1.74 1.84 1.91 2.02 2.44 2.71 2.41 2.13 1.78 1.45 1.32 1.35 1.10 0.71 0.56 0.60 0.62 0.66 0.65 0.60 0.59 0.53
0.14 0.16 0.23 0.43 0.68 0.93 1.14 1.41 1.70 1.70 1.59 1.50 1.50 1.47 1.42 1.43 1.39 1.38 1.51 1.57 1.58 1.63 1.72 2.00 2.23 2.47 2.61 2.53 2.43 2.26 2.03 1.71 1.28 1.30 1.22 0.93 0.78 0.69 0.69 0.70 0.69 0.66 0.63
0.44 0.58 0.79 1.05 1.24 1.33 1.46 1.61 1.73 1.71 1.72 1.67 1.49 1.39 1.39 1.43 1.49 1.53 1.58 1.57 1.53 1.56 1.64 1.83 2.08 2.29 2.55 2.69 2.57 2.37 2.23 2.03 1.73 1.55 1.33 1.21 1.12 0.90 0.87 0.85 0.77 0.74 0.73

GEFSSE_prec_meanprecacc_108.txt.gz
Total_Precipitation_Accumulation
0.57 0.38 0.50 0.52 0.47 0.47 0.44 0.45 0.45 0.42 0.40 0.38 0.34 0.33 0.32 0.30 0.31 0.33 0.33 0.25 0.19 0.17 0.17 0.24 0.30 0.25 0.26 0.31 0.34 0.39 0.45 0.45 0.38 0.31 0.32 0.34 0.32 0.38 0.52 0.63 0.79 0.84 0.61
0.45 0.37 0.56 0.57 0.55 0.54 0.51 0.49 0.48 0.44 0.39 0.39 0.38 0.35 0.34 0.33 0.35 0.33 0.28 0.22 0.18 0.17 0.18 0.26 0.31 0.28 0.29 0.36 0.46 0.53 0.58 0.53 0.44 0.35 0.44 0.49 0.43 0.47 0.54 0.62 0.90 0.88 0.56
0.40 0.37 0.51 0.64 0.64 0.60 0.57 0.54 0.55 0.50 0.41 0.41 0.42 0.40 0.35 0.31 0.29 0.27 0.27 0.22 0.19 0.19 0.20 0.26 0.32 0.30 0.30 0.40 0.51 0.54 0.56 0.54 0.47 0.47 0.83 1.37 0.97 0.62 0.58 0.68 0.72 0.62 0.51
0.38 0.39 0.50 0.71 0.75 0.70 0.65 0.63 0.75 0.69 0.57 0.51 0.49 0.45 0.38 0.33 0.35 0.40 0.40 0.31 0.25 0.24 0.23 0.28 0.34 0.30 0.32 0.40 0.44 0.43 0.46 0.47 0.51 0.71 1.29 1.70 1.44 0.90 0.80 0.78 0.69 0.60 0.53
0.40 0.42 0.67 0.83 0.76 0.73 0.74 0.86 1.01 0.92 0.82 0.71 0.60 0.52 0.48 0.44 0.45 0.51 0.45 0.41 0.37 0.32 0.30 0.36 0.39 0.34 0.33 0.33 0.34 0.34 0.43 0.60 0.76 0.89 1.24 1.41 1.45 1.10 0.91 0.80 0.74 0.63 0.60
0.44 0.45 0.61 0.76 0.75 0.77 0.82 0.93 1.00 1.03 1.05 0.85 0.70 0.63 0.63 0.60 0.59 0.61 0.59 0.52 0.50 0.46 0.43 0.43 0.40 0.40 0.38 0.37 0.34 0.37 0.50 0.71 0.86 1.02 1.25 1.30 1.26 1.01 0.88 0.79 0.78 0.75 0.72
0.40 0.42 0.48 0.65 0.66 0.71 0.81 0.90 0.92 1.00 1.09 0.95 0.73 0.72 0.75 0.68 0.68 0.71 0.73 0.62 0.58 0.54 0.51 0.51 0.46 0.43 0.41 0.40 0.39 0.42 0.49 0.54 0.70 0.94 1.22 1.38 1.10 0.85 0.82 0.76 0.76 0.79 0.80
0.53 0.48 0.50 0.60 0.65 0.69 0.78 0.90 0.84 0.91 1.02 0.96 0.87 0.81 0.75 0.74 0.77 0.78 0.74 0.69 0.62 0.60 0.57 0.58 0.56 0.49 0.44 0.42 0.42 0.47 0.50 0.45 0.53 0.69 0.80 1.16 1.21 0.99 0.78 0.75 0.80 0.73 0.71
0.90 0.78 0.61 0.53 0.55 0.62 0.73 0.85 0.89 0.90 0.94 0.92 0.98 0.93 0.90 0.87 0.81 0.76 0.73 0.71 0.67 0.66 0.64 0.63 0.58 0.54 0.49 0.44 0.41 0.46 0.51 0.45 0.55 0.63 0.62 0.98 1.16 1.03 0.77 0.70 0.75 0.79 0.74
0.97 0.92 0.79 0.71 0.68 0.68 0.65 0.81 1.02 1.10 1.07 0.98 0.97 0.96 0.96 0.90 0.81 0.75 0.68 0.67 0.70 0.70 0.73 0.73 0.64 0.60 0.54 0.47 0.44 0.49 0.51 0.45 0.47 0.50 0.59 0.78 1.06 1.02 0.86 0.65 0.59 0.59 0.57
0.79 0.80 0.82 0.85 0.88 0.93 0.93 0.92 1.14 1.22 1.15 0.96 0.87 0.90 0.92 0.78 0.80 0.81 0.69 0.80 0.78 0.81 0.83 0.82 0.74 0.68 0.57 0.48 0.51 0.55 0.45 0.41 0.53 0.50 0.56 0.67 0.91 0.92 0.84 0.68 0.51 0.45 0.42
0.64 0.65 0.66 0.69 0.77 0.89 0.97 1.30 1.50 1.30 1.19 0.92 0.91 0.81 0.87 0.94 1.02 0.85 0.78 0.93 0.95 0.98 0.93 0.91 0.90 0.79 0.61 0.44 0.48 0.50 0.36 0.40 0.50 0.42 0.46 0.62 0.83 0.83 0.71 0.61 0.46 0.38 0.37
0.49 0.48 0.48 0.47 0.49 0.58 0.78 1.12 1.41 1.52 1.48 1.40 1.16 0.93 0.94 0.82 0.72 0.67 0.69 0.79 0.86 0.93 0.87 0.88 0.84 0.69 0.59 0.53 0.47 0.39 0.35 0.37 0.51 0.51 0.55 0.66 0.76 0.81 0.71 0.60 0.46 0.38 0.33
0.48 0.48 0.45 0.44 0.41 0.43 0.52 0.69 0.89 1.03 1.12 1.14 0.99 0.88 0.95 0.84 0.74 0.75 0.75 0.75 0.75 0.82 0.90 0.91 0.83 0.70 0.59 0.52 0.48 0.45 0.43 0.42 0.55 0.68 0.74 0.61 0.66 0.74 0.73 0.62 0.51 0.43 0.37
0.52 0.59 0.56 0.47 0.44 0.43 0.47 0.54 0.62 0.77 0.86 0.89 0.91 0.86 0.90 0.90 0.87 0.84 0.77 0.77 0.71 0.77 0.86 0.90 0.82 0.73 0.68 0.61 0.57 0.60 0.58 0.58 0.60 0.61 0.68 0.63 0.69 0.81 0.85 0.78 0.62 0.48 0.40
0.53 0.60 0.65 0.57 0.52 0.48 0.46 0.49 0.54 0.64 0.72 0.76 0.75 0.75 0.85 0.94 0.93 0.89 0.85 0.86 0.83 0.83 0.94 0.92 0.80 0.80 0.78 0.68 0.57 0.57 0.59 0.61 0.64 0.59 0.61 0.70 0.71 0.70 0.84 0.93 0.86 0.62 0.50
0.53 0.56 0.59 0.60 0.60 0.59 0.57 0.56 0.56 0.63 0.73 0.75 0.72 0.67 0.69 0.78 0.83 0.86 0.87 0.87 0.91 0.99 1.04 1.05 0.86 0.82 0.74 0.65 0.60 0.55 0.52 0.53 0.53 0.55 0.49 0.47 0.54 0.64 0.76 0.91 0.96 0.78 0.66
0.46 0.47 0.52 0.54 0.59 0.65 0.68 0.69 0.71 0.71 0.78 0.75 0.74 0.68 0.63 0.68 0.76 0.90 0.90 0.88 0.90 1.02 1.10 1.12 1.00 0.90 0.78 0.72 0.72 0.65 0.58 0.57 0.51 0.53 0.51 0.43 0.49 0.48 0.63 0.69 0.77 0.80 0.76
0.41 0.41 0.44 0.48 0.51 0.62 0.70 0.73 0.82 0.84 0.86 0.83 0.82 0.74 0.71 0.76 0.83 1.00 1.10 1.11 1.11 1.11 1.09 1.03 1.05 0.99 0.88 0.84 0.81 0.76 0.69 0.60 0.56 0.49 0.50 0.50 0.44 0.44 0.50 0.43 0.47 0.50 0.60
0.32 0.34 0.38 0.43 0.45 0.53 0.68 0.80 0.96 1.07 1.04 1.06 1.00 0.89 0.91 1.05 1.18 1.32 1.31 1.38 1.44 1.31 1.24 1.16 1.16 1.10 0.98 0.95 0.90 0.77 0.71 0.62 0.62 0.59 0.59 0.56 0.52 0.45 0.50 0.44 0.37 0.31 0.36
0.22 0.25 0.31 0.34 0.42 0.50 0.58 0.73 0.95 1.22 1.33 1.43 1.39 1.21 1.16 1.28 1.52 1.72 1.68 1.71 1.72 1.57 1.50 1.57 1.72 1.65 1.37 1.13 1.08 0.90 0.74 0.60 0.65 0.62 0.58 0.58 0.57 0.60 0.63 0.59 0.43 0.35 0.27
0.15 0.17 0.22 0.30 0.39 0.48 0.57 0.75 0.91 1.06 1.07 1.24 1.40 1.38 1.30 1.29 1.43 1.57 1.81 1.88 1.79 1.78 1.89 1.93 2.19 2.29 1.87 1.47 1.41 1.46 1.17 0.96 0.70 0.53 0.54 0.53 0.56 0.73 0.69 0.57 0.49 0.38 0.30
0.10 0.12 0.15 0.22 0.32 0.45 0.61 0.85 1.07 1.26 1.34 1.41 1.34 1.43 1.44 1.37 1.41 1.50 1.66 1.80 1.79 1.85 1.90 2.01 2.33 2.71 2.44 1.96 1.74 1.85 1.51 1.31 1.13 0.70 0.51 0.51 0.57 0.72 0.80 0.72 0.65 0.54 0.42
0.08 0.09 0.12 0.20 0.35 0.56 0.78 1.04 1.30 1.50 1.54 1.43 1.48 1.51 1.39 1.33 1.30 1.37 1.50 1.63 1.73 1.75 1.86 1.93 2.04 2.47 2.73 2.42 2.16 1.82 1.48 1.35 1.39 1.15 0.75 0.62 0.67 0.70 0.76 0.76 0.72 0.72 0.66
0.14 0.16 0.23 0.43 0.68 0.93 1.14 1.41 1.70 1.70 1.59 1.50 1.50 1.47 1.42 1.43 1.40 1.39 1.52 1.58 1.59 1.65 1.74 2.03 2.27 2.51 2.65 2.56 2.46 2.29 2.05 1.72 1.31 1.34 1.26 0.97 0.84 0.77 0.77 0.80 0.80 0.78 0.78
0.44 0.58 0.79 1.05 1.24 1.33 1.46 1.61 1.73 1.71 1.72 1.67 1.49 1.39 1.39 1.43 1.49 1.53 1.59 1.58 1.54 1.57 1.66 1.86 2.12 2.33 2.59 2.72 2.60 2.40 2.25 2.04 1.75 1.57 1.35 1.24 1.17 0.96 0.93 0.92 0.86 0.85 0.86

GEFSSE_prec_meanprecacc_114.txt.gz
Total_Precipitation_Accumulation
0.59 0.41 0.58 0.61 0.54 0.53 0.51 0.51 0.48 0.45 0.43 0.40 0.36 0.35 0.35 0.33 0.35 0.37 0.36 0.27 0.21 0.19 0.18 0.25 0.31 0.25 0.26 0.31 0.34 0.39 0.45 0.46 0.39 0.32 0.33 0.36 0.36 0.41 0.56 0.69 0.82 0.85 0.63
0.46 0.40 0.65 0.67 0.63 0.60 0.56 0.52 0.50 0.46 0.40 0.40 0.40 0.37 0.37 0.37 0.39 0.37 0.31 0.25 0.21 0.19 0.20 0.27 0.32 0.28 0.29 0.37 0.46 0.54 0.59 0.53 0.45 0.36 0.45 0.50 0.46 0.50 0.59 0.69 0.94 0.90 0.59
0.42 0.41 0.57 0.73 0.73 0.67 0.62 0.57 0.57 0.52 0.43 0.42 0.44 0.42 0.36 0.34 0.32 0.30 0.29 0.25 0.22 0.22 0.23 0.28 0.33 0.30 0.31 0.41 0.52 0.55 0.57 0.55 0.47 0.49 0.85 1.37 0.98 0.66 0.62 0.75 0.78 0.67 0.54
0.40 0.43 0.55 0.79 0.83 0.76 0.70 0.68 0.78 0.71 0.58 0.52 0.49 0.46 0.40 0.35 0.37 0.43 0.43 0.33 0.28 0.27 0.26 0.30 0.37 0.31 0.32 0.40 0.45 0.44 0.47 0.47 0.52 0.72 1.29 1.70 1.44 0.92 0.83 0.83 0.75 0.67 0.56
0.42 0.45 0.71 0.88 0.80 0.76 0.76 0.88 1.02 0.94 0.83 0.71 0.60 0.53 0.49 0.45 0.46 0.52 0.46 0.43 0.40 0.35 0.33 0.38 0.41 0.36 0.34 0.34 0.35 0.35 0.45 0.61 0.77 0.90 1.25 1.41 1.46 1.13 0.95 0.84 0.78 0.68 0.64
0.47 0.49 0.64 0.79 0.78 0.80 0.84 0.94 1.01 1.04 1.05 0.86 0.70 0.65 0.64 0.62 0.60 0.62 0.61 0.55 0.53 0.49 0.47 0.47 0.43 0.42 0.40 0.39 0.36 0.38 0.52 0.73 0.87 1.03 1.25 1.31 1.27 1.04 0.93 0.83 0.82 0.79 0.75
0.42 0.45 0.52 0.67 0.67 0.72 0.82 0.91 0.93 1.02 1.10 0.96 0.74 0.74 0.77 0.70 0.70 0.72 0.74 0.64 0.61 0.58 0.55 0.56 0.50 0.47 0.45 0.44 0.43 0.45 0.53 0.57 0.72 0.95 1.23 1.39 1.11 0.90 0.89 0.81 0.81 0.84 0.86
0.54 0.49 0.52 0.63 0.66 0.70 0.80 0.91 0.85 0.92 1.03 0.97 0.87 0.81 0.76 0.75 0.79 0.80 0.76 0.71 0.65 0.63 0.61 0.63 0.61 0.54 0.49 0.47 0.47 0.52 0.55 0.50 0.55 0.70 0.80 1.17 1.23 1.07 0.85 0.80 0.84 0.79 0.77
0.92 0.79 0.63 0.56 0.57 0.64 0.76 0.88 0.91 0.92 0.96 0.93 0.99 0.94 0.91 0.88 0.82 0.77 0.75 0.74 0.72 0.70 0.69 0.66 0.62 0.58 0.54 0.49 0.46 0.52 0.59 0.52 0.58 0.63 0.62 0.98 1.20 1.12 0.85 0.76 0.80 0.84 0.79
0.98 0.92 0.80 0.71 0.69 0.70 0.67 0.83 1.03 1.11 1.08 0.99 0.97 0.97 0.97 0.91 0.81 0.76 0.69 0.70 0.73 0.74 0.77 0.77 0.68 0.64 0.61 0.54 0.51 0.58 0.61 0.52 0.50 0.51 0.60 0.79 1.11 1.12 0.96 0.72 0.65 0.64 0.62
0.80 0.80 0.82 0.85 0.88 0.94 0.93 0.92 1.14 1.23 1.15 0.97 0.87 0.90 0.92 0.78 0.80 0.81 0.70 0.81 0.80 0.83 0.87 0.86 0.80 0.74 0.64 0.55 0.58 0.65 0.54 0.45 0.55 0.51 0.56 0.69 0.97 1.03 0.96 0.77 0.56 0.49 0.46
0.64 0.65 0.66 0.69 0.77 0.89 0.97 1.30 1.50 1.30 1.19 0.92 0.91 0.81 0.87 0.94 1.02 0.85 0.79 0.94 0.96 0.99 0.95 0.93 0.94 0.84 0.67 0.49 0.53 0.58 0.41 0.44 0.53 0.43 0.48 0.67 0.91 0.94 0.85 0.72 0.54 0.44 0.42
0.50 0.48 0.48 0.47 0.49 0.58 0.78 1.12 1.41 1.52 1.48 1.40 1.16 0.93 0.94 0.82 0.72 0.67 0.69 0.79 0.87 0.94 0.88 0.90 0.87 0.72 0.62 0.56 0.50 0.41 0.37 0.40 0.54 0.53 0.57 0.71 0.83 0.92 0.85 0.72 0.55 0.45 0.39
0.48 0.48 0.45 0.44 0.41 0.43 0.52 0.69 0.89 1.03 1.12 1.14 0.99 0.88 0.95 0.84 0.74 0.75 0.75 0.75 0.75 0.82 0.90 0.92 0.84 0.72 0.61 0.53 0.49 0.46 0.44 0.43 0.57 0.70 0.76 0.64 0.72 0.83 0.86 0.75 0.60 0.51 0.44
0.52 0.59 0.56 0.47 0.44 0.43 0.47 0.54 0.62 0.77 0.86 0.89 0.91 0.86 0.90 0.90 0.87 0.84 0.77 0.77 0.71 0.77 0.86 0.90 0.83 0.74 0.69 0.61 0.58 0.61 0.60 0.60 0.63 0.64 0.71 0.67 0.74 0.86 0.95 0.90 0.74 0.58 0.49
0.53 0.60 0.65 0.57 0.52 0.48 0.46 0.49 0.54 0.64 0.72 0.76 0.75 0.75 0.85 0.94 0.93 0.89 0.85 0.86 0.83 0.84 0.95 0.93 0.81 0.82 0.79 0.69 0.58 0.59 0.61 0.64 0.67 0.62 0.65 0.75 0.76 0.74 0.90 1.04 0.98 0.74 0.65
0.53 0.56 0.59 0.60 0.60 0.59 0.57 0.56 0.56 0.63 0.73 0.75 0.72 0.67 0.69 0.78 0.83 0.86 0.87 0.87 0.91 0.99 1.04 1.06 0.88 0.84 0.76 0.67 0.61 0.58 0.54 0.55 0.55 0.58 0.52 0.51 0.59 0.68 0.81 0.99 1.06 0.90 0.81
0.46 0.47 0.52 0.54 0.59 0.65 0.68 0.69 0.71 0.71 0.78 0.75 0.74 0.68 0.63 0.68 0.76 0.90 0.90 0.88 0.90 1.02 1.10 1.13 1.02 0.92 0.80 0.73 0.72 0.66 0.60 0.59 0.54 0.57 0.54 0.47 0.54 0.52 0.67 0.74 0.84 0.89 0.89
0.41 0.41 0.44 0.48 0.51 0.62 0.70 0.73 0.82 0.84 0.86 0.83 0.82 0.74 0.71 0.76 0.83 1.00 1.10 1.11 1.11 1.11 1.09 1.05 1.07 1.00 0.89 0.85 0.82 0.77 0.71 0.63 0.61 0.53 0.54 0.54 0.48 0.48 0.54 0.46 0.51 0.56 0.70
0.32 0.34 0.38 0.43 0.45 0.53 0.68 0.80 0.96 1.07 1.04 1.06 1.00 0.89 0.91 1.05 1.18 1.32 1.31 1.39 1.45 1.31 1.25 1.17 1.18 1.11 0.99 0.96 0.91 0.78 0.73 0.65 0.66 0.62 0.62 0.60 0.55 0.49 0.54 0.47 0.40 0.35 0.43
0.22 0.25 0.31 0.34 0.42 0.50 0.58 0.73 0.95 1.22 1.33 1.43 1.39 1.21 1.16 1.28 1.52 1.72 1.68 1.72 1.73 1.58 1.51 1.58 1.75 1.68 1.39 1.14 1.09 0.91 0.76 0.63 0.70 0.67 0.61 0.61 0.60 0.65 0.68 0.63 0.47 0.38 0.32
0.16 0.17 0.22 0.30 0.39 0.48 0.57 0.75 0.91 1.06 1.07 1.24 1.40 1.38 1.30 1.29 1.43 1.57 1.82 1.89 1.81 1.80 1.91 1.94 2.22 2.32 1.89 1.48 1.41 1.46 1.19 0.99 0.74 0.58 0.58 0.56 0.59 0.77 0.75 0.64 0.55 0.41 0.34
0.10 0.12 0.15 0.22 0.32 0.45 0.61 0.85 1.07 1.26 1.34 1.41 1.34 1.43 1.44 1.37 1.41 1.50 1.66 1.81 1.81 1.86 1.92 2.04 2.35 2.75 2.46 1.97 1.74 1.86 1.52 1.32 1.15 0.74 0.56 0.55 0.61 0.77 0.85 0.80 0.72 0.59 0.47
0.08 0.09 0.12 0.20 0.35 0.56 0.78 1.04 1.30 1.50 1.54 1.43 1.48 1.51 1.39 1.33 1.30 1.37 1.50 1.63 1.75 1.76 1.87 1.96 2.07 2.50 2.76 2.44 2.17 1.83 1.49 1.37 1.41 1.18 0.80 0.65 0.69 0.73 0.80 0.80 0.77 0.76 0.70
0.14 0.16 0.23 0.43 0.68 0.93 1.14 1.41 1.70 1.70 1.59 1.50 1.50 1.47 1.42 1.43 1.40 1.39 1.53 1.59 1.59 1.65 1.74 2.05 2.30 2.54 2.69 2.59 2.48 2.32 2.07 1.74 1.33 1.36 1.29 0.99 0.86 0.79 0.80 0.84 0.85 0.83 0.82
0.44 0.58 0.79 1.05 1.24 1.33 1.46 1.61 1.73 1.71 1.72 1.67 1.49 1.39 1.39 1.43 1.49 1.53 1.59 1.58 1.54 1.57 1.67 1.88 2.14 2.35 2.62 2.76 2.63 2.42 2.27 2.06 1.77 1.59 1.37 1.26 1.19 0.99 0.95 0.95 0.90 0.91 0.92